When you browse on this site, cookies collect data to enhance your experience and personalize the content and advertising you see.
Visit our Privacy Policy to learn more. By continuing to use the site, you agree to this use of cookies and data.
  • In Austria
  • List of Countries
  • For 7 days
  • Water Temperature
  • Weather Map
  • News
  • Weather Widgets
  • user-avatar
    Login

    Hourly Weather Emiliano Zapata

    Today, 17 September, Tuesday

    Time Temperature Precipitation Wind Pressure Humidity
    00:00 +13°C° 0.1 mm 1 mps 566 mmHg 95%
    01:00 +13°C° 0.1 mm 1 mps 566 mmHg 95%
    02:00 +13°C° 0.1 mm 1 mps 565 mmHg 95%
    03:00 +12°C° 0 mm 1 mps 565 mmHg 95%
    04:00 +11°C° 0 mm 0 mps 565 mmHg 95%
    05:00 +12°C° 0 mm 1 mps 565 mmHg 95%
    06:00 +13°C° 0 mm 1 mps 566 mmHg 91%
    07:00 +15°C° 0 mm 1 mps 567 mmHg 86%
    08:00 +16°C° 0 mm 1 mps 568 mmHg 81%
    09:00 +19°C° 0.1 mm 1 mps 569 mmHg 74%
    10:00 +19°C° 0.1 mm 2 mps 569 mmHg 67%
    11:00 +21°C° 0.1 mm 2 mps 569 mmHg 60%
    12:00 +21°C° 0.2 mm 2 mps 569 mmHg 57%
    13:00 +23°C° 0.2 mm 2 mps 569 mmHg 54%
    14:00 +23°C° 0.2 mm 2 mps 569 mmHg 51%
    15:00 +21°C° 0.7 mm 2 mps 568 mmHg 61%
    16:00 +19°C° 0.7 mm 2 mps 567 mmHg 71%
    17:00 +18°C° 0.7 mm 2 mps 566 mmHg 81%
    18:00 +16°C° 0.3 mm 2 mps 566 mmHg 84%
    19:00 +15°C° 0.3 mm 2 mps 566 mmHg 88%
    20:00 +14°C° 0.3 mm 1 mps 566 mmHg 92%
    21:00 +13°C° 0 mm 1 mps 566 mmHg 92%
    22:00 +13°C° 0 mm 1 mps 566 mmHg 92%
    23:00 +13°C° 0 mm 1 mps 565 mmHg 92%

    Tomorrow, 18 September, Wednesday

    Time Temperature Precipitation Wind Pressure Humidity
    00:00 +13°C° 0 mm 1 mps 565 mmHg 92%
    01:00 +12°C° 0 mm 1 mps 565 mmHg 93%
    02:00 +12°C° 0 mm 1 mps 564 mmHg 93%
    03:00 +12°C° 0 mm 1 mps 564 mmHg 93%
    04:00 +12°C° 0 mm 1 mps 564 mmHg 94%
    05:00 +12°C° 0 mm 1 mps 564 mmHg 94%
    06:00 +14°C° 0 mm 1 mps 565 mmHg 88%
    07:00 +15°C° 0 mm 2 mps 567 mmHg 83%
    08:00 +17°C° 0 mm 2 mps 568 mmHg 77%
    09:00 +18°C° 0.4 mm 2 mps 568 mmHg 73%
    10:00 +20°C° 0.4 mm 3 mps 569 mmHg 68%
    11:00 +21°C° 0.4 mm 3 mps 569 mmHg 64%
    12:00 +21°C° 1.7 mm 3 mps 568 mmHg 65%
    13:00 +21°C° 1.7 mm 3 mps 568 mmHg 66%
    14:00 +21°C° 1.7 mm 3 mps 567 mmHg 67%
    15:00 +19°C° 2.1 mm 3 mps 567 mmHg 74%
    16:00 +18°C° 2.1 mm 2 mps 566 mmHg 81%
    17:00 +17°C° 2.1 mm 2 mps 565 mmHg 88%
    18:00 +16°C° 1.3 mm 2 mps 566 mmHg 90%
    19:00 +15°C° 1.3 mm 2 mps 566 mmHg 92%
    20:00 +15°C° 1.3 mm 2 mps 566 mmHg 94%
    21:00 +14°C° 0.9 mm 2 mps 566 mmHg 94%
    22:00 +14°C° 0.9 mm 2 mps 566 mmHg 94%
    23:00 +14°C° 0.9 mm 2 mps 566 mmHg 94%

    Day after tomorrow, 19 September, Thursday

    Time Temperature Precipitation Wind Pressure Humidity
    00:00 +13°C° 0.1 mm 1 mps 565 mmHg 94%
    01:00 +13°C° 0.1 mm 1 mps 565 mmHg 94%
    02:00 +13°C° 0.1 mm 1 mps 565 mmHg 94%
    03:00 +13°C° 0 mm 1 mps 565 mmHg 94%
    04:00 +13°C° 0 mm 1 mps 565 mmHg 94%
    05:00 +13°C° 0 mm 2 mps 565 mmHg 94%
    06:00 +14°C° 0 mm 2 mps 565 mmHg 89%
    07:00 +15°C° 0 mm 2 mps 566 mmHg 84%
    08:00 +16°C° 0 mm 2 mps 567 mmHg 79%
    09:00 +18°C° 0 mm 2 mps 567 mmHg 69%
    10:00 +20°C° 0 mm 3 mps 568 mmHg 60%
    11:00 +22°C° 0 mm 4 mps 569 mmHg 51%
    12:00 +22°C° 0.2 mm 4 mps 568 mmHg 52%
    13:00 +22°C° 0.2 mm 4 mps 567 mmHg 54%
    14:00 +22°C° 0.2 mm 4 mps 567 mmHg 56%
    15:00 +20°C° 0.6 mm 4 mps 566 mmHg 63%
    16:00 +19°C° 0.6 mm 3 mps 566 mmHg 71%
    17:00 +18°C° 0.6 mm 3 mps 565 mmHg 78%
    18:00 +16°C° 0.3 mm 2 mps 565 mmHg 82%
    19:00 +15°C° 0.3 mm 2 mps 565 mmHg 86%
    20:00 +14°C° 0.3 mm 2 mps 565 mmHg 90%
    21:00 +13°C° 0 mm 2 mps 565 mmHg 90%
    22:00 +13°C° 0 mm 2 mps 564 mmHg 91%
    23:00 +12°C° 0 mm 1 mps 564 mmHg 91%

    20 September, Friday

    Time Temperature Precipitation Wind Pressure Humidity
    00:00 +12°C° 0 mm 1 mps 564 mmHg 91%
    01:00 +12°C° 0 mm 1 mps 564 mmHg 90%
    02:00 +11°C° 0 mm 1 mps 563 mmHg 90%
    03:00 +11°C° 0 mm 1 mps 563 mmHg 89%
    04:00 +11°C° 0 mm 1 mps 563 mmHg 89%
    05:00 +11°C° 0 mm 1 mps 563 mmHg 88%
    06:00 +13°C° 0 mm 1 mps 565 mmHg 79%
    07:00 +15°C° 0 mm 1 mps 566 mmHg 71%
    08:00 +18°C° 0 mm 1 mps 567 mmHg 62%
    09:00 +20°C° 0 mm 1 mps 568 mmHg 55%
    10:00 +20°C° 0 mm 2 mps 568 mmHg 47%
    11:00 +23°C° 0 mm 2 mps 569 mmHg 39%
    12:00 +23°C° 0 mm 2 mps 568 mmHg 39%
    13:00 +24°C° 0 mm 3 mps 568 mmHg 39%
    14:00 +24°C° 0 mm 3 mps 568 mmHg 39%
    15:00 +21°C° 0.1 mm 3 mps 567 mmHg 50%
    16:00 +19°C° 0.1 mm 3 mps 566 mmHg 60%
    17:00 +18°C° 0.1 mm 2 mps 566 mmHg 70%
    18:00 +16°C° 0 mm 2 mps 566 mmHg 76%
    19:00 +15°C° 0 mm 2 mps 565 mmHg 81%
    20:00 +13°C° 0 mm 2 mps 565 mmHg 87%
    21:00 +13°C° 0 mm 2 mps 565 mmHg 88%
    22:00 +12°C° 0 mm 1 mps 565 mmHg 90%
    23:00 +12°C° 0 mm 1 mps 565 mmHg 91%

    21 September, Saturday

    Time Temperature Precipitation Wind Pressure Humidity
    00:00 +12°C° 0 mm 1 mps 565 mmHg 92%
    01:00 +11°C° 0 mm 1 mps 565 mmHg 93%
    02:00 +11°C° 0 mm 1 mps 564 mmHg 93%
    03:00 +11°C° 0 mm 1 mps 564 mmHg 93%
    04:00 +11°C° 0 mm 1 mps 564 mmHg 93%
    05:00 +9°C° 0 mm 0 mps 564 mmHg 93%
    06:00 +11°C° 0 mm 0 mps 565 mmHg 84%
    07:00 +14°C° 0 mm 0 mps 567 mmHg 76%
    08:00 +16°C° 0 mm 0 mps 568 mmHg 68%
    09:00 +19°C° 0 mm 1 mps 569 mmHg 59%
    10:00 +21°C° 0 mm 1 mps 569 mmHg 51%
    11:00 +23°C° 0 mm 2 mps 570 mmHg 43%
    12:00 +22°C° 0 mm 3 mps 569 mmHg 43%
    13:00 +22°C° 0 mm 3 mps 569 mmHg 43%
    14:00 +23°C° 0 mm 4 mps 568 mmHg 43%
    15:00 +21°C° 0 mm 4 mps 568 mmHg 54%
    16:00 +19°C° 0 mm 3 mps 567 mmHg 65%
    17:00 +18°C° 0 mm 3 mps 566 mmHg 76%
    18:00 +16°C° 0 mm 3 mps 566 mmHg 81%
    19:00 +14°C° 0 mm 2 mps 566 mmHg 87%
    20:00 +13°C° 0 mm 2 mps 566 mmHg 93%
    21:00 +13°C° 0 mm 1 mps 565 mmHg 93%
    22:00 +12°C° 0 mm 1 mps 565 mmHg 93%
    23:00 +12°C° 0 mm 1 mps 565 mmHg 94%

    22 September, Sunday

    Time Temperature Precipitation Wind Pressure Humidity
    00:00 +12°C° 0 mm 1 mps 565 mmHg 93%
    01:00 +11°C° 0 mm 1 mps 565 mmHg 93%
    02:00 +10°C° 0 mm 0 mps 564 mmHg 93%
    03:00 +10°C° 0 mm 0 mps 564 mmHg 93%
    04:00 +10°C° 0 mm 0 mps 564 mmHg 92%
    05:00 +10°C° 0 mm 0 mps 564 mmHg 92%
    06:00 +12°C° 0 mm 0 mps 566 mmHg 84%
    07:00 +14°C° 0 mm 0 mps 567 mmHg 76%
    08:00 +18°C° 0 mm 1 mps 568 mmHg 68%
    09:00 +20°C° 0 mm 1 mps 569 mmHg 60%
    10:00 +20°C° 0 mm 2 mps 569 mmHg 52%
    11:00 +23°C° 0 mm 2 mps 570 mmHg 44%
    12:00 +23°C° 0 mm 2 mps 569 mmHg 44%
    13:00 +24°C° 0 mm 3 mps 569 mmHg 43%
    14:00 +24°C° 0 mm 3 mps 569 mmHg 43%
    15:00 +22°C° 0 mm 3 mps 568 mmHg 54%
    16:00 +20°C° 0 mm 3 mps 567 mmHg 64%
    17:00 +18°C° 0 mm 3 mps 566 mmHg 74%
    18:00 +16°C° 0.1 mm 2 mps 566 mmHg 81%
    19:00 +15°C° 0.1 mm 2 mps 566 mmHg 87%
    20:00 +13°C° 0.1 mm 2 mps 565 mmHg 93%
    21:00 +13°C° 0 mm 1 mps 565 mmHg 92%
    22:00 +12°C° 0 mm 1 mps 565 mmHg 91%
    23:00 +12°C° 0 mm 1 mps 565 mmHg 90%
    Show more